SCP
4 5 5 6 6 5 5 5 7 7 6 6 6 5 5 5 6 6 6 5 5 5 6 6 6 5 4 4 3 3 2 2 2 2 2 1 1 1 2 2 2 2 1
4 4 5 5 6 5 5 6 6 7 7 6 6 6 6 6 6 6 6 6 6 6 6 6 6 5 5 4 3 3 2 2 2 2 2 1 1 1 1 2 2 2 2
4 4 4 5 5 5 5 5 6 6 7 7 7 7 8 8 8 7 7 7 6 7 7 6 6 5 5 4 4 3 3 2 2 3 2 2 1 1 1 1 2 2 2
3 4 4 4 4 4 4 5 5 6 7 7 7 8 8 9 9 9 8 7 7 7 7 6 5 5 5 4 4 3 3 3 3 3 2 2 2 2 1 1 2 2 2
3 3 4 4 4 3 4 4 5 5 6 7 8 8 8 9 9 9 8 7 7 7 7 6 5 5 4 4 3 3 3 4 3 3 2 2 2 2 2 2 1 2 2
2 3 3 3 3 3 3 4 5 5 6 6 7 7 7 7 8 8 7 7 7 7 7 7 6 5 4 3 3 3 2 3 3 2 2 2 2 2 2 2 1 1 1
2 2 2 2 2 2 2 3 4 5 6 6 7 7 7 7 7 7 7 7 7 7 7 7 6 5 4 3 3 3 2 2 2 2 2 2 2 2 2 2 1 1 1
1 1 1 1 1 1 2 2 3 5 7 8 8 8 8 8 8 8 8 7 8 7 7 7 6 5 4 3 3 2 2 2 2 1 1 1 1 1 2 1 1 1 1
0 0 0 0 1 1 1 2 2 4 7 9 9 9 9 9 9 9 8 7 7 7 7 6 5 4 3 3 2 2 2 2 1 1 1 1 1 1 1 1 1 1 1
0 0 1 1 1 1 1 1 2 4 6 8 9 10 10 9 9 9 8 7 5 5 5 5 4 3 2 2 2 2 2 1 1 1 1 1 1 1 1 1 1 1 1
1 1 1 1 1 1 1 1 2 3 4 6 7 8 8 7 6 6 6 5 4 3 3 3 2 2 2 1 1 1 1 1 1 1 1 1 1 1 1 1 1 1 1
1 1 0 0 0 0 1 1 1 2 3 4 4 4 4 3 3 3 3 2 2 1 1 1 1 1 1 1 1 1 1 1 1 1 1 1 1 1 1 1 1 1 0
0 0 0 0 0 0 0 0 1 1 1 2 2 1 1 1 1 1 1 1 1 1 0 0 0 1 1 1 1 1 1 1 1 1 0 0 0 1 1 0 0 0 0
0 0 0 0 0 0 0 0 1 1 1 0 0 1 1 1 0 0 0 0 0 0 0 0 0 0 1 1 1 1 0 0 0 0 0 0 0 0 0 0 0 0 0
0 0 0 1 1 0 0 0 0 0 0 0 0 0 1 0 0 0 0 0 0 0 0 0 0 0 0 0 0 0 0 0 0 0 0 0 0 0 0 0 0 0 0
0 0 0 0 0 0 0 0 0 0 0 0 0 0 0 0 0 0 0 0 0 0 0 0 0 0 0 0 0 0 0 0 0 0 0 0 0 0 0 0 0 0 0
0 0 0 0 0 0 0 0 0 0 0 0 0 0 0 0 0 0 0 0 0 0 0 0 0 0 0 0 0 0 0 0 0 0 0 0 0 0 0 0 0 0 0
0 0 0 0 0 0 0 0 0 0 0 0 0 0 0 0 0 0 0 0 0 0 0 0 0 0 0 0 0 0 0 0 0 0 0 0 0 0 0 0 0 0 0
0 0 0 0 0 0 0 0 0 0 0 0 0 0 0 0 0 0 0 0 0 0 0 0 0 0 0 0 0 0 0 0 0 0 0 0 0 0 0 0 0 0 0
0 0 0 0 1 1 0 0 0 0 0 0 0 0 0 0 0 0 0 0 0 0 0 0 0 0 0 0 0 0 0 0 0 0 0 0 0 0 0 0 0 0 0
1 1 1 1 1 1 0 0 0 0 0 0 0 0 0 0 0 0 0 0 0 0 0 0 0 0 0 0 0 0 0 0 0 0 0 0 0 0 0 0 0 0 0
1 1 1 1 1 1 1 0 0 0 0 0 0 0 0 0 0 0 0 0 0 0 0 0 0 0 0 0 0 0 0 0 0 0 0 0 0 0 0 0 0 0 0
1 1 1 1 1 1 1 0 0 0 0 0 0 0 0 0 0 0 0 0 0 0 0 0 0 0 0 0 0 0 0 0 0 0 0 0 0 0 0 0 0 0 0
1 1 1 1 1 1 1 0 0 0 0 0 0 0 0 0 0 0 0 0 0 0 0 0 0 0 0 0 0 0 0 0 0 0 0 0 0 0 0 0 0 0 0
1 1 1 1 1 1 1 0 0 0 0 0 0 0 0 0 0 0 0 0 0 0 0 0 0 0 0 0 0 0 0 0 0 0 0 0 0 0 0 0 0 0 0
1 1 1 1 1 1 1 1 0 0 0 0 0 0 0 0 0 0 0 0 0 0 0 0 0 0 0 0 0 0 0 0 0 0 0 0 0 0 0 0 0 0 0
Wind_Speed
0 2 5 7 9 10 11 11 11 10 9 7 8 7 8 8 9 9 10 9 9 8 7 7 7 7 7 8 9 8 9 7 6 7 9 9 10 9 7 7 7 7 6
2 1 1 4 6 8 9 10 11 10 10 8 7 6 7 7 8 8 8 8 8 8 8 8 7 6 6 9 8 7 7 7 6 6 7 7 7 5 5 5 6 6 6
5 4 2 1 3 4 5 6 8 9 9 9 7 6 6 7 8 8 7 8 8 8 8 8 7 6 6 7 7 6 8 7 6 5 6 6 6 6 5 5 5 5 6
6 5 5 4 3 3 4 5 6 7 7 7 8 10 9 11 11 8 7 7 7 6 6 6 6 6 6 6 7 7 6 7 6 5 6 7 6 6 6 6 4 5 7
5 5 6 6 5 5 5 5 5 6 6 7 8 9 11 11 9 8 9 8 7 7 7 7 6 6 6 6 6 5 6 6 6 5 5 5 5 7 6 8 7 6 6
5 5 5 5 6 6 6 6 6 7 7 7 8 9 12 12 12 10 8 7 6 6 7 7 7 7 7 6 6 6 7 5 5 5 4 5 5 4 5 7 7 7 6
5 6 6 7 7 7 7 7 7 8 8 8 8 9 10 11 12 10 8 8 6 6 7 7 7 6 6 5 5 5 5 5 4 4 3 3 3 4 4 6 6 7 5
6 7 7 7 7 8 7 7 7 8 8 7 7 6 7 6 5 6 5 6 5 6 7 7 6 6 6 5 5 4 4 3 3 3 2 3 2 2 3 4 6 7 5
7 8 8 8 8 8 8 8 8 7 6 5 5 4 3 2 1 1 3 3 4 5 6 6 5 5 5 4 5 3 3 3 3 3 3 2 1 2 2 3 4 6 7
8 8 8 8 8 7 7 7 7 6 5 4 3 2 2 1 2 2 2 2 2 4 5 6 5 5 5 5 4 4 4 3 2 1 2 1 1 2 2 3 3 4 5
8 8 7 7 7 6 6 6 5 5 4 3 2 2 2 3 4 3 3 3 3 2 4 5 5 5 5 4 4 3 4 4 3 3 3 3 4 3 3 3 3 4 5
7 7 6 5 5 5 5 4 4 3 2 2 2 3 3 4 4 4 4 3 4 3 3 3 4 4 5 5 5 5 5 5 5 5 5 4 3 3 4 4 4 4 4
7 6 5 5 4 4 3 2 2 1 1 1 2 3 3 3 4 4 4 4 4 4 3 2 3 4 5 6 6 6 7 7 7 6 6 6 5 5 5 5 6 5 4
6 5 5 5 4 4 3 2 1 0 1 1 2 2 3 3 3 3 3 3 3 4 3 3 3 4 5 6 7 8 8 8 8 7 7 7 7 7 6 5 6 6 6
7 6 6 5 5 5 4 3 2 2 2 3 3 3 3 4 4 4 4 3 3 4 3 4 4 5 5 6 8 9 9 9 9 8 8 8 7 7 7 7 8 8 7
7 6 6 6 6 6 6 5 4 4 4 5 6 6 6 6 6 6 5 5 4 4 4 4 5 6 6 7 6 6 9 8 8 7 6 7 6 4 3 3 5 7 8
8 7 7 6 6 6 6 6 5 5 5 6 6 7 8 7 8 8 7 6 6 5 5 5 6 8 7 6 6 5 7 8 7 6 5 5 7 7 6 1 5 3 3
7 7 6 6 6 6 6 6 6 6 6 6 6 7 8 8 7 7 7 6 6 5 5 5 7 8 7 6 6 4 7 7 6 6 6 5 7 8 9 6 6 5 6
7 6 6 6 6 6 7 7 6 6 6 7 7 7 8 8 8 8 8 7 6 6 6 6 7 8 7 5 4 3 6 5 6 5 6 6 6 8 10 6 6 6 5
7 7 7 7 7 7 7 7 8 7 7 7 7 7 7 8 8 8 8 7 7 6 6 6 6 7 8 5 1 5 3 4 4 4 6 9 7 7 10 6 6 7 7
8 9 8 8 8 8 8 9 8 8 7 6 7 7 8 7 7 8 7 7 8 7 7 8 6 7 7 6 2 5 1 1 1 2 3 7 6 6 6 6 6 6 8
10 11 10 9 9 9 9 10 9 8 7 7 8 8 8 8 8 8 8 8 8 9 8 7 7 6 6 5 5 5 6 5 2 2 4 6 4 3 4 4 5 9 10
11 11 12 11 10 11 11 11 9 8 8 8 9 9 10 8 8 9 9 9 9 8 8 8 7 6 6 6 5 4 3 3 1 4 6 3 1 4 3 2 5 7 5
11 12 13 13 12 12 12 11 9 8 9 10 10 9 10 9 9 7 8 8 9 8 8 7 7 7 6 7 7 7 6 6 5 4 5 5 4 3 0 2 2 3 5
11 12 14 14 14 13 13 12 11 10 10 10 10 10 10 9 8 8 5 6 6 5 6 7 7 8 7 5 4 1 2 2 3 2 4 4 3 2 1 2 3 4 5
10 13 15 15 15 14 14 13 12 12 11 10 10 9 9 9 8 8 8 5 4 5 4 3 0 5 8 11 7 4 3 2 2 4 2 2 1 2 2 3 3 3 5
Wind_Direction
14 221 223 228 223 219 219 219 221 213 213 219 223 227 233 237 240 239 240 241 247 251 249 256 258 254 255 257 257 256 256 256 260 268 272 268 260 258 264 266 278 277 276
64 74 210 220 228 227 227 223 222 221 218 219 223 230 242 247 243 242 240 239 242 247 249 248 252 252 255 257 256 254 256 259 250 264 283 283 272 233 248 263 261 278 284
21 21 6 327 266 250 249 248 244 237 233 231 230 238 237 245 245 238 233 235 240 245 246 251 254 252 250 253 253 250 250 257 258 248 265 284 296 319 275 269 275 283 289
29 17 6 357 335 309 283 271 263 258 251 244 238 238 242 244 243 237 230 226 227 235 239 244 249 249 245 244 245 240 243 247 256 246 244 260 288 289 295 281 281 288 284
26 14 4 355 348 336 319 301 289 278 267 259 253 251 253 253 251 242 235 223 213 209 214 220 226 235 240 239 242 241 242 242 252 259 258 259 257 254 270 290 302 298 291
13 4 352 342 336 331 325 318 307 295 281 270 265 256 257 258 255 243 229 215 204 201 202 207 210 218 223 222 223 230 232 244 250 260 256 259 267 277 275 286 299 303 306
343 340 338 337 335 332 330 322 317 308 301 287 275 268 264 261 254 245 229 212 199 193 187 196 197 203 209 207 209 216 226 223 226 240 250 258 272 289 290 291 301 302 303
313 315 317 321 323 327 328 324 318 312 309 299 289 283 274 264 254 241 225 204 193 185 175 183 183 185 194 196 198 206 199 202 216 232 255 263 274 292 292 300 308 305 303
301 301 305 311 316 320 323 321 319 317 318 317 307 293 290 277 247 179 193 182 172 168 166 165 165 172 178 184 198 188 192 188 208 199 199 256 334 305 317 306 307 310 313
293 294 296 299 304 309 312 317 318 316 319 328 329 338 348 37 72 94 99 103 136 147 148 149 156 163 169 178 195 178 164 179 159 119 73 6 2 351 330 325 318 304 303
293 293 292 295 296 298 305 312 317 322 334 356 19 25 33 62 69 67 74 77 84 107 134 140 146 154 160 163 172 152 146 141 117 107 89 62 28 9 349 346 336 332 323
289 290 289 289 291 297 305 315 321 329 346 12 55 67 52 56 68 68 68 73 73 72 79 110 132 147 145 145 144 132 121 112 101 86 77 66 64 44 14 353 357 353 336
280 282 277 274 276 279 288 309 330 344 26 53 85 87 82 75 73 70 66 70 74 68 63 91 122 129 126 121 115 111 106 100 92 85 78 69 59 42 36 10 7 352 347
268 266 259 254 255 254 252 235 237 220 154 118 117 111 114 116 105 89 75 80 97 102 104 110 117 119 118 117 113 109 104 99 92 83 74 62 53 39 21 19 10 357 339
262 254 249 245 245 235 224 225 209 195 189 172 176 170 157 150 142 130 121 121 124 125 125 127 126 124 120 109 112 116 111 107 101 93 83 70 60 42 16 14 9 1 351
265 252 244 242 241 233 223 217 213 207 208 200 193 184 172 170 166 156 150 148 142 133 128 128 128 115 91 69 72 106 112 108 103 97 94 99 75 79 101 60 32 16 7
267 253 248 244 239 232 223 221 217 212 215 213 200 185 182 180 174 165 159 159 156 149 137 136 124 105 96 93 86 83 113 107 97 89 68 55 56 21 23 94 181 123 81
262 252 246 238 229 223 217 223 221 218 222 215 199 184 182 177 169 167 164 162 157 150 145 140 127 117 115 117 114 115 116 107 100 86 68 54 47 28 355 3 24 30 42
254 248 238 231 222 219 217 222 226 222 220 212 197 184 179 176 173 173 169 165 159 154 153 139 134 127 127 140 158 228 135 121 105 82 58 36 52 25 345 1 23 21 22
232 229 223 220 215 216 217 224 228 226 222 211 196 184 182 183 181 173 167 163 159 157 154 135 135 131 129 139 189 284 169 129 132 125 118 74 41 20 357 9 22 16 3
219 214 215 212 212 208 210 226 234 231 222 203 187 183 184 183 175 166 163 162 162 155 144 133 126 121 122 130 82 346 322 121 152 110 96 81 47 28 7 354 24 354 312
217 208 206 208 204 203 209 224 234 231 216 200 191 185 181 181 169 167 167 166 161 156 153 147 142 132 128 110 102 63 42 355 60 53 70 83 53 25 7 18 0 313 301
220 209 204 203 200 200 210 224 226 219 210 204 196 185 181 181 174 174 172 171 177 179 168 166 164 152 140 127 125 117 89 7 19 71 67 67 234 239 179 106 306 309 347
222 210 205 203 202 201 207 218 221 212 209 208 198 188 182 181 180 184 183 184 185 187 181 179 173 162 162 161 164 164 164 177 176 146 148 190 227 241 57 225 279 4 22
226 212 207 206 203 199 203 209 210 206 210 208 199 193 190 188 183 190 186 202 192 191 193 185 178 175 173 132 73 49 132 118 91 181 181 179 170 168 84 46 29 6 10
231 217 212 208 204 198 200 204 204 204 209 208 203 198 193 188 190 186 174 73 63 100 84 47 186 136 120 131 127 102 78 67 339 271 165 127 84 40 33 11 12 21 19